Year,Month,Day,Hour,Minute,Value (Times are PST for temperature in C)
2015,10,01,00,00,8.90
2015,10,01,00,01,8.90
2015,10,01,00,02,8.90
2015,10,01,00,03,8.90
2015,10,01,00,04,8.90
2015,10,01,00,05,8.90
2015,10,01,00,06,8.90
2015,10,01,00,07,8.90
2015,10,01,00,08,8.90
2015,10,01,00,09,8.80
2015,10,01,00,10,8.80
2015,10,01,00,11,8.80
2015,10,01,00,12,8.80
2015,10,01,00,13,8.80
2015,10,01,00,14,8.80
2015,10,01,00,15,8.80
2015,10,01,00,16,8.80
2015,10,01,00,17,8.80
2015,10,01,00,18,8.80
2015,10,01,00,19,8.80
2015,10,01,00,20,8.80
2015,10,01,00,21,8.70
2015,10,01,00,22,8.70
2015,10,01,00,23,8.70
2015,10,01,00,24,8.70
2015,10,01,00,25,8.70
2015,10,01,00,26,8.70
2015,10,01,00,27,8.70
2015,10,01,00,28,8.70
2015,10,01,00,29,8.70
2015,10,01,00,30,8.70
2015,10,01,00,31,8.70
2015,10,01,00,32,8.70
2015,10,01,00,33,8.70
2015,10,01,00,34,8.70
2015,10,01,00,35,8.60
2015,10,01,00,36,8.70
2015,10,01,00,37,8.70
2015,10,01,00,38,8.70
2015,10,01,00,39,8.70
2015,10,01,00,40,8.70
2015,10,01,00,41,8.70
2015,10,01,00,42,8.70
2015,10,01,00,43,8.80
2015,10,01,00,44,8.80
2015,10,01,00,45,8.80
2015,10,01,00,46,8.70
2015,10,01,00,47,8.70
2015,10,01,00,48,8.70
2015,10,01,00,49,8.70
2015,10,01,00,50,8.70
2015,10,01,00,51,8.60
2015,10,01,00,52,8.60
2015,10,01,00,53,8.60
2015,10,01,00,54,8.60
2015,10,01,00,55,8.60
2015,10,01,00,56,8.60
2015,10,01,00,57,8.60
2015,10,01,00,58,8.60
2015,10,01,00,59,8.60
2015,10,01,01,00,8.60
2015,10,01,01,01,8.60
2015,10,01,01,02,8.60
2015,10,01,01,03,8.60
2015,10,01,01,04,8.60
2015,10,01,01,05,8.60
2015,10,01,01,06,8.60
2015,10,01,01,07,8.60
2015,10,01,01,08,8.60
2015,10,01,01,09,8.60
2015,10,01,01,10,8.50
2015,10,01,01,11,8.50
2015,10,01,01,12,8.60
2015,10,01,01,13,8.60
2015,10,01,01,14,8.60
2015,10,01,01,15,8.50
2015,10,01,01,16,8.50
2015,10,01,01,17,8.50
2015,10,01,01,18,8.50
2015,10,01,01,19,8.50
2015,10,01,01,20,8.50
2015,10,01,01,21,8.40
2015,10,01,01,22,8.40
2015,10,01,01,23,8.40
2015,10,01,01,24,8.40
2015,10,01,01,25,8.40
2015,10,01,01,26,8.40
2015,10,01,01,27,8.40
2015,10,01,01,28,8.50
2015,10,01,01,29,8.50
2015,10,01,01,30,8.50
2015,10,01,01,31,8.50
2015,10,01,01,32,8.40
2015,10,01,01,33,8.40
2015,10,01,01,34,8.40
2015,10,01,01,35,8.40
2015,10,01,01,36,8.40
2015,10,01,01,37,8.40
2015,10,01,01,38,8.40
2015,10,01,01,39,8.40
2015,10,01,01,40,8.40
2015,10,01,01,41,8.40
2015,10,01,01,42,8.40
2015,10,01,01,43,8.40
2015,10,01,01,44,8.40
2015,10,01,01,45,8.40
2015,10,01,01,46,8.40
2015,10,01,01,47,8.40
2015,10,01,01,48,8.40
2015,10,01,01,49,8.40
2015,10,01,01,50,8.40
2015,10,01,01,51,8.40
2015,10,01,01,52,8.40
2015,10,01,01,53,8.40
2015,10,01,01,54,8.40
2015,10,01,01,55,8.40
2015,10,01,01,56,8.40
2015,10,01,01,57,8.40
2015,10,01,01,58,8.40
2015,10,01,01,59,8.30
2015,10,01,02,00,8.30
2015,10,01,02,01,8.30
2015,10,01,02,02,8.30
2015,10,01,02,03,8.30
2015,10,01,02,04,8.30
2015,10,01,02,05,8.30
2015,10,01,02,06,8.30
2015,10,01,02,07,8.30
2015,10,01,02,08,8.30
2015,10,01,02,09,8.30
2015,10,01,02,10,8.30
2015,10,01,02,11,8.30
2015,10,01,02,12,8.30
2015,10,01,02,13,8.20
2015,10,01,02,14,8.20
2015,10,01,02,15,8.20
2015,10,01,02,16,8.20
2015,10,01,02,17,8.20
2015,10,01,02,18,8.20
2015,10,01,02,19,8.20
2015,10,01,02,20,8.20
2015,10,01,02,21,8.10
2015,10,01,02,22,8.10
2015,10,01,02,23,8.10
2015,10,01,02,24,8.10
2015,10,01,02,25,8.10
2015,10,01,02,26,8.10
2015,10,01,02,27,8.10
2015,10,01,02,28,8.10
2015,10,01,02,29,8.10
2015,10,01,02,30,8.10
2015,10,01,02,31,8.00
2015,10,01,02,32,8.00
2015,10,01,02,33,8.10
2015,10,01,02,34,8.00
2015,10,01,02,35,8.00
2015,10,01,02,36,8.00
2015,10,01,02,37,8.00
2015,10,01,02,38,8.00
2015,10,01,02,39,8.00
2015,10,01,02,40,8.00
2015,10,01,02,41,8.00
2015,10,01,02,42,8.00
2015,10,01,02,43,8.10
2015,10,01,02,44,8.10
2015,10,01,02,45,8.10
2015,10,01,02,46,8.10
2015,10,01,02,47,8.10
2015,10,01,02,48,8.20
2015,10,01,02,49,8.20
2015,10,01,02,50,8.20
2015,10,01,02,51,8.20
2015,10,01,02,52,8.20
2015,10,01,02,53,8.20
2015,10,01,02,54,8.20
2015,10,01,02,55,8.20
2015,10,01,02,56,8.20
2015,10,01,02,57,8.10
2015,10,01,02,58,8.10
2015,10,01,02,59,8.10
2015,10,01,03,00,8.10
2015,10,01,03,01,8.10
2015,10,01,03,02,8.10
2015,10,01,03,03,8.10
2015,10,01,03,04,8.00
2015,10,01,03,05,8.00
2015,10,01,03,06,7.90
2015,10,01,03,07,7.90
2015,10,01,03,08,7.90
2015,10,01,03,09,7.90
2015,10,01,03,10,7.90
2015,10,01,03,11,7.90
2015,10,01,03,12,7.90
2015,10,01,03,13,7.90
2015,10,01,03,14,7.90
2015,10,01,03,15,7.90
2015,10,01,03,16,7.90
2015,10,01,03,17,7.90
2015,10,01,03,18,7.90
2015,10,01,03,19,7.90
2015,10,01,03,20,7.80
2015,10,01,03,21,7.80
2015,10,01,03,22,7.80
2015,10,01,03,23,7.80
2015,10,01,03,24,7.80
2015,10,01,03,25,7.80
2015,10,01,03,26,7.80
2015,10,01,03,27,7.80
2015,10,01,03,28,7.80
2015,10,01,03,29,7.80
2015,10,01,03,30,7.80
2015,10,01,03,31,7.80
2015,10,01,03,32,7.80
2015,10,01,03,33,7.80
2015,10,01,03,34,7.80
2015,10,01,03,35,7.80
2015,10,01,03,36,7.80
2015,10,01,03,37,7.80
2015,10,01,03,38,7.80
2015,10,01,03,39,7.80
2015,10,01,03,40,7.80
2015,10,01,03,41,7.80
2015,10,01,03,42,7.80
2015,10,01,03,43,7.80
2015,10,01,03,44,7.70
2015,10,01,03,45,7.70
2015,10,01,03,46,7.70
2015,10,01,03,47,7.70
2015,10,01,03,48,7.70
2015,10,01,03,49,7.70
2015,10,01,03,50,7.70
2015,10,01,03,51,7.70
2015,10,01,03,52,7.70
2015,10,01,03,53,7.80
2015,10,01,03,54,7.70
2015,10,01,03,55,7.70
2015,10,01,03,56,7.70
2015,10,01,03,57,7.70
2015,10,01,03,58,7.70
2015,10,01,03,59,7.70
2015,10,01,04,00,7.70
2015,10,01,04,01,7.70
2015,10,01,04,02,7.70
2015,10,01,04,03,7.70
2015,10,01,04,04,7.70
2015,10,01,04,05,7.70
2015,10,01,04,06,7.70
2015,10,01,04,07,7.70
2015,10,01,04,08,7.70
2015,10,01,04,09,7.70
2015,10,01,04,10,7.60
2015,10,01,04,11,7.60
2015,10,01,04,12,7.60
2015,10,01,04,13,7.60
2015,10,01,04,14,7.60
2015,10,01,04,15,7.60
2015,10,01,04,16,7.60
2015,10,01,04,17,7.60
2015,10,01,04,18,7.60
2015,10,01,04,19,7.60
2015,10,01,04,20,7.60
2015,10,01,04,21,7.60
2015,10,01,04,22,7.60
2015,10,01,04,23,7.60
2015,10,01,04,24,7.60
2015,10,01,04,25,7.60
2015,10,01,04,26,7.60
2015,10,01,04,27,7.60
2015,10,01,04,28,7.60
2015,10,01,04,29,7.50
2015,10,01,04,30,7.50
2015,10,01,04,31,7.50
2015,10,01,04,32,7.50
2015,10,01,04,33,7.50
2015,10,01,04,34,7.40
2015,10,01,04,35,7.40
2015,10,01,04,36,7.40
2015,10,01,04,37,7.40
2015,10,01,04,38,7.40
2015,10,01,04,39,7.40
2015,10,01,04,40,7.40
2015,10,01,04,41,7.40
2015,10,01,04,42,7.50
2015,10,01,04,43,7.50
2015,10,01,04,44,7.60
2015,10,01,04,45,7.60
2015,10,01,04,46,7.70
2015,10,01,04,47,7.70
2015,10,01,04,48,7.70
2015,10,01,04,49,7.70
2015,10,01,04,50,7.70
2015,10,01,04,51,7.70
2015,10,01,04,52,7.80
2015,10,01,04,53,7.80
2015,10,01,04,54,7.80
2015,10,01,04,55,7.80
2015,10,01,04,56,7.80
2015,10,01,04,57,7.80
2015,10,01,04,58,7.80
2015,10,01,04,59,7.70
2015,10,01,05,00,7.70
2015,10,01,05,01,7.70
2015,10,01,05,02,7.60
2015,10,01,05,03,7.60
2015,10,01,05,04,7.60
2015,10,01,05,05,7.60
2015,10,01,05,06,7.60
2015,10,01,05,07,7.60
2015,10,01,05,08,7.60
2015,10,01,05,09,7.60
2015,10,01,05,10,7.60
2015,10,01,05,11,7.60
2015,10,01,05,12,7.70
2015,10,01,05,13,7.70
2015,10,01,05,14,7.70
2015,10,01,05,15,7.80
2015,10,01,05,16,7.70
2015,10,01,05,17,7.70
2015,10,01,05,18,7.70
2015,10,01,05,19,7.70
2015,10,01,05,20,7.60
2015,10,01,05,21,7.60
2015,10,01,05,22,7.60
2015,10,01,05,23,7.60
2015,10,01,05,24,7.60
2015,10,01,05,25,7.60
2015,10,01,05,26,7.60
2015,10,01,05,27,7.70
2015,10,01,05,28,7.70
2015,10,01,05,29,7.80
2015,10,01,05,30,7.80
2015,10,01,05,31,7.80
2015,10,01,05,32,7.90
2015,10,01,05,33,7.90
2015,10,01,05,34,8.00
2015,10,01,05,35,8.00
2015,10,01,05,36,8.00
2015,10,01,05,37,8.10
2015,10,01,05,38,8.10
2015,10,01,05,39,8.10
2015,10,01,05,40,8.10
2015,10,01,05,41,8.10
2015,10,01,05,42,8.10
2015,10,01,05,43,8.10
2015,10,01,05,44,8.00
2015,10,01,05,45,8.00
2015,10,01,05,46,8.00
2015,10,01,05,47,7.90
2015,10,01,05,48,7.90
2015,10,01,05,49,7.90
2015,10,01,05,50,7.90
2015,10,01,05,51,7.90
2015,10,01,05,52,7.80
2015,10,01,05,53,7.80
2015,10,01,05,54,7.80
2015,10,01,05,55,7.70
2015,10,01,05,56,7.70
2015,10,01,05,57,7.70
2015,10,01,05,58,7.70
2015,10,01,05,59,7.60
2015,10,01,06,00,7.60
2015,10,01,06,01,7.70
2015,10,01,06,02,7.70
2015,10,01,06,03,7.70
2015,10,01,06,04,7.70
2015,10,01,06,05,7.70
2015,10,01,06,06,7.80
2015,10,01,06,07,7.80
2015,10,01,06,08,7.80
2015,10,01,06,09,7.80
2015,10,01,06,10,7.80
2015,10,01,06,11,7.80
2015,10,01,06,12,7.80
2015,10,01,06,13,7.80
2015,10,01,06,14,7.80
2015,10,01,06,15,7.80
2015,10,01,06,16,7.80
2015,10,01,06,17,7.80
2015,10,01,06,18,7.80
2015,10,01,06,19,7.80
2015,10,01,06,20,7.80
2015,10,01,06,21,7.80
2015,10,01,06,22,7.80
2015,10,01,06,23,7.80
2015,10,01,06,24,7.80
2015,10,01,06,25,7.80
2015,10,01,06,26,7.80
2015,10,01,06,27,7.80
2015,10,01,06,28,7.80
2015,10,01,06,29,7.80
2015,10,01,06,30,7.80
2015,10,01,06,31,7.80
2015,10,01,06,32,7.80
2015,10,01,06,33,7.80
2015,10,01,06,34,7.80
2015,10,01,06,35,7.80
2015,10,01,06,36,7.80
2015,10,01,06,37,7.90
2015,10,01,06,38,7.90
2015,10,01,06,39,7.90
2015,10,01,06,40,7.90
2015,10,01,06,41,7.90
2015,10,01,06,42,7.90
2015,10,01,06,43,8.00
2015,10,01,06,44,8.00
2015,10,01,06,45,8.10
2015,10,01,06,46,8.10
2015,10,01,06,47,8.10
2015,10,01,06,48,8.10
2015,10,01,06,49,8.10
2015,10,01,06,50,8.10
2015,10,01,06,51,8.10
2015,10,01,06,52,8.10
2015,10,01,06,53,8.10
2015,10,01,06,54,8.10
2015,10,01,06,55,8.10
2015,10,01,06,56,8.10
2015,10,01,06,57,8.20
2015,10,01,06,58,8.20
2015,10,01,06,59,8.20
2015,10,01,07,00,8.20
2015,10,01,07,01,8.30
2015,10,01,07,02,8.30
2015,10,01,07,03,8.30
2015,10,01,07,04,8.20
2015,10,01,07,05,8.20
2015,10,01,07,06,8.20
2015,10,01,07,07,8.10
2015,10,01,07,08,8.10
2015,10,01,07,09,8.10
2015,10,01,07,10,8.00
2015,10,01,07,11,8.00
2015,10,01,07,12,8.00
2015,10,01,07,13,8.00
2015,10,01,07,14,7.90
2015,10,01,07,15,7.90
2015,10,01,07,16,7.90
2015,10,01,07,17,7.80
2015,10,01,07,18,7.80
2015,10,01,07,19,7.80
2015,10,01,07,20,7.80
2015,10,01,07,21,7.80
2015,10,01,07,22,7.80
2015,10,01,07,23,7.80
2015,10,01,07,24,7.80
2015,10,01,07,25,7.80
2015,10,01,07,26,7.70
2015,10,01,07,27,7.70
2015,10,01,07,28,7.70
2015,10,01,07,29,7.70
2015,10,01,07,30,7.70
2015,10,01,07,31,7.70
2015,10,01,07,32,7.70
2015,10,01,07,33,7.70
2015,10,01,07,34,7.70
2015,10,01,07,35,7.70
2015,10,01,07,36,7.70
2015,10,01,07,37,7.70
2015,10,01,07,38,7.80
2015,10,01,07,39,7.80
2015,10,01,07,40,7.80
2015,10,01,07,41,7.90
2015,10,01,07,42,7.90
2015,10,01,07,43,7.90
2015,10,01,07,44,7.90
2015,10,01,07,45,7.90
2015,10,01,07,46,7.90
2015,10,01,07,47,7.90
2015,10,01,07,48,7.90
2015,10,01,07,49,7.90
2015,10,01,07,50,7.90
2015,10,01,07,51,7.90
2015,10,01,07,52,7.90
2015,10,01,07,53,7.90
2015,10,01,07,54,7.90
2015,10,01,07,55,7.90
2015,10,01,07,56,7.90
2015,10,01,07,57,7.90
2015,10,01,07,58,7.90
2015,10,01,07,59,7.90
2015,10,01,08,00,7.90
2015,10,01,08,01,7.90
2015,10,01,08,02,7.90
2015,10,01,08,03,7.90
2015,10,01,08,04,7.90
2015,10,01,08,05,8.00
2015,10,01,08,06,8.00
2015,10,01,08,07,8.00
2015,10,01,08,08,8.00
2015,10,01,08,09,8.10
2015,10,01,08,10,8.10
2015,10,01,08,11,8.10
2015,10,01,08,12,8.10
2015,10,01,08,13,8.10
2015,10,01,08,14,8.10
2015,10,01,08,15,8.10
2015,10,01,08,16,8.20
2015,10,01,08,17,8.20
2015,10,01,08,18,8.20
2015,10,01,08,19,8.20
2015,10,01,08,20,8.20
2015,10,01,08,21,8.20
2015,10,01,08,22,8.20
2015,10,01,08,23,8.30
2015,10,01,08,24,8.30
2015,10,01,08,25,8.30
2015,10,01,08,26,8.40
2015,10,01,08,27,8.40
2015,10,01,08,28,8.50
2015,10,01,08,29,8.50
2015,10,01,08,30,8.60
2015,10,01,08,31,8.70
2015,10,01,08,32,8.80
2015,10,01,08,33,8.90
2015,10,01,08,34,9.00
2015,10,01,08,35,9.10
2015,10,01,08,36,9.20
2015,10,01,08,37,9.20
2015,10,01,08,38,9.30
2015,10,01,08,39,9.40
2015,10,01,08,40,9.40
2015,10,01,08,41,9.50
2015,10,01,08,42,9.50
2015,10,01,08,43,9.60
2015,10,01,08,44,9.60
2015,10,01,08,45,9.70
2015,10,01,08,46,9.70
2015,10,01,08,47,9.80
2015,10,01,08,48,9.80
2015,10,01,08,49,9.80
2015,10,01,08,50,9.90
2015,10,01,08,51,9.90
2015,10,01,08,52,10.00
2015,10,01,08,53,10.00
2015,10,01,08,54,10.10
2015,10,01,08,55,10.10
2015,10,01,08,56,10.20
2015,10,01,08,57,10.20
2015,10,01,08,58,10.20
2015,10,01,08,59,10.30
2015,10,01,09,00,10.30
2015,10,01,09,01,10.30
2015,10,01,09,02,10.30
2015,10,01,09,03,10.40
2015,10,01,09,04,10.40
2015,10,01,09,05,10.40
2015,10,01,09,06,10.50
2015,10,01,09,07,10.50
2015,10,01,09,08,10.50
2015,10,01,09,09,10.60
2015,10,01,09,10,10.60
2015,10,01,09,11,10.60
2015,10,01,09,12,10.60
2015,10,01,09,13,10.70
2015,10,01,09,14,10.70
2015,10,01,09,15,10.70
2015,10,01,09,16,10.70
2015,10,01,09,17,10.80
2015,10,01,09,18,10.80
2015,10,01,09,19,10.80
2015,10,01,09,20,10.80
2015,10,01,09,21,10.90
2015,10,01,09,22,10.90
2015,10,01,09,23,10.90
2015,10,01,09,24,10.90
2015,10,01,09,25,11.00
2015,10,01,09,26,11.00
2015,10,01,09,27,11.00
2015,10,01,09,28,11.10
2015,10,01,09,29,11.10
2015,10,01,09,30,11.10
2015,10,01,09,31,11.20
2015,10,01,09,32,11.20
2015,10,01,09,33,11.20
2015,10,01,09,34,11.20
2015,10,01,09,35,11.30
2015,10,01,09,36,11.30
2015,10,01,09,37,11.30
2015,10,01,09,38,11.40
2015,10,01,09,39,11.40
2015,10,01,09,40,11.40
2015,10,01,09,41,11.50
2015,10,01,09,42,11.50
2015,10,01,09,43,11.50
2015,10,01,09,44,11.50
2015,10,01,09,45,11.40
2015,10,01,09,46,11.40
2015,10,01,09,47,11.50
2015,10,01,09,48,11.50
2015,10,01,09,49,11.60
2015,10,01,09,50,11.60
2015,10,01,09,51,11.60
2015,10,01,09,52,11.60
2015,10,01,09,53,11.60
2015,10,01,09,54,11.70
2015,10,01,09,55,11.70
2015,10,01,09,56,11.70
2015,10,01,09,57,11.80
2015,10,01,09,58,11.80
2015,10,01,09,59,11.80
2015,10,01,10,00,11.90
2015,10,01,10,01,11.90
2015,10,01,10,02,11.90
2015,10,01,10,03,11.90
2015,10,01,10,04,12.00
2015,10,01,10,05,12.00
2015,10,01,10,06,12.10
2015,10,01,10,07,12.10
2015,10,01,10,08,12.10
2015,10,01,10,09,12.20
2015,10,01,10,10,12.20
2015,10,01,10,11,12.20
2015,10,01,10,12,12.20
2015,10,01,10,13,12.20
2015,10,01,10,14,12.30
2015,10,01,10,15,12.30
2015,10,01,10,16,12.30
2015,10,01,10,17,12.30
2015,10,01,10,18,12.30
2015,10,01,10,19,12.30
2015,10,01,10,20,12.30
2015,10,01,10,21,12.30
2015,10,01,10,22,12.40
2015,10,01,10,23,12.40
2015,10,01,10,24,12.40
2015,10,01,10,25,12.50
2015,10,01,10,26,12.50
2015,10,01,10,27,12.60
2015,10,01,10,28,12.60
2015,10,01,10,29,12.70
2015,10,01,10,30,12.70
2015,10,01,10,31,12.70
2015,10,01,10,32,12.80
2015,10,01,10,33,12.80
2015,10,01,10,34,12.80
2015,10,01,10,35,12.90
2015,10,01,10,36,12.90
2015,10,01,10,37,12.90
2015,10,01,10,38,13.00
2015,10,01,10,39,13.00
2015,10,01,10,40,13.10
2015,10,01,10,41,13.10
2015,10,01,10,42,13.10
2015,10,01,10,43,13.20
2015,10,01,10,44,13.20
2015,10,01,10,45,13.20
2015,10,01,10,46,13.20
2015,10,01,10,47,13.20
2015,10,01,10,48,13.20
2015,10,01,10,49,13.20
2015,10,01,10,50,13.20
2015,10,01,10,51,13.20
2015,10,01,10,52,13.20
2015,10,01,10,53,13.20
2015,10,01,10,54,13.20
2015,10,01,10,55,13.10
2015,10,01,10,56,13.20
2015,10,01,10,57,13.20
2015,10,01,10,58,13.20
2015,10,01,10,59,13.20
2015,10,01,11,00,13.30
2015,10,01,11,01,13.30
2015,10,01,11,02,13.40
2015,10,01,11,03,13.40
2015,10,01,11,04,13.50
2015,10,01,11,05,13.50
2015,10,01,11,06,13.60
2015,10,01,11,07,13.60
2015,10,01,11,08,13.60
2015,10,01,11,09,13.60
2015,10,01,11,10,13.60
2015,10,01,11,11,13.70
2015,10,01,11,12,13.70
2015,10,01,11,13,13.70
2015,10,01,11,14,13.80
2015,10,01,11,15,13.80
2015,10,01,11,16,13.90
2015,10,01,11,17,14.00
2015,10,01,11,18,14.00
2015,10,01,11,19,14.10
2015,10,01,11,20,14.10
2015,10,01,11,21,14.10
2015,10,01,11,22,14.10
2015,10,01,11,23,14.10
2015,10,01,11,24,14.20
2015,10,01,11,25,14.20
2015,10,01,11,26,14.20
2015,10,01,11,27,14.20
2015,10,01,11,28,14.20
2015,10,01,11,29,14.20
2015,10,01,11,30,14.20
2015,10,01,11,31,14.30
2015,10,01,11,32,14.30
2015,10,01,11,33,14.30
2015,10,01,11,34,14.30
2015,10,01,11,35,14.40
2015,10,01,11,36,14.40
2015,10,01,11,37,14.50
2015,10,01,11,38,14.50
2015,10,01,11,39,14.50
2015,10,01,11,40,14.60
2015,10,01,11,41,14.60
2015,10,01,11,42,14.70
2015,10,01,11,43,14.80
2015,10,01,11,44,14.80
2015,10,01,11,45,14.80
2015,10,01,11,46,14.90
2015,10,01,11,47,14.90
2015,10,01,11,48,15.00
2015,10,01,11,49,15.00
2015,10,01,11,50,15.10
2015,10,01,11,51,15.10
2015,10,01,11,52,15.20
2015,10,01,11,53,15.20
2015,10,01,11,54,15.20
2015,10,01,11,55,15.10
2015,10,01,11,56,15.10
2015,10,01,11,57,15.10
2015,10,01,11,58,15.10
2015,10,01,11,59,15.10
2015,10,01,12,00,15.10
2015,10,01,12,01,15.10
2015,10,01,12,02,15.20
2015,10,01,12,03,15.20
2015,10,01,12,04,15.20
2015,10,01,12,05,15.30
2015,10,01,12,06,15.30
2015,10,01,12,07,15.30
2015,10,01,12,08,15.30
2015,10,01,12,09,15.40
2015,10,01,12,10,15.40
2015,10,01,12,11,15.40
2015,10,01,12,12,15.40
2015,10,01,12,13,15.40
2015,10,01,12,14,15.30
2015,10,01,12,15,15.30
2015,10,01,12,16,15.30
2015,10,01,12,17,15.30
2015,10,01,12,18,15.30
2015,10,01,12,19,15.30
2015,10,01,12,20,15.40
2015,10,01,12,21,15.40
2015,10,01,12,22,15.40
2015,10,01,12,23,15.40
2015,10,01,12,24,15.40
2015,10,01,12,25,15.40
2015,10,01,12,26,15.40
2015,10,01,12,27,15.50
2015,10,01,12,28,15.50
2015,10,01,12,29,15.50
2015,10,01,12,30,15.50
2015,10,01,12,31,15.60
2015,10,01,12,32,15.60
2015,10,01,12,33,15.60
2015,10,01,12,34,15.70
2015,10,01,12,35,15.70
2015,10,01,12,36,15.80
2015,10,01,12,37,15.80
2015,10,01,12,38,15.90
2015,10,01,12,39,16.00
2015,10,01,12,40,16.10
2015,10,01,12,41,16.10
2015,10,01,12,42,16.20
2015,10,01,12,43,16.20
2015,10,01,12,44,16.20
2015,10,01,12,45,16.30
2015,10,01,12,46,16.30
2015,10,01,12,47,16.40
2015,10,01,12,48,16.40
2015,10,01,12,49,16.40
2015,10,01,12,50,16.50
2015,10,01,12,51,16.50
2015,10,01,12,52,16.50
2015,10,01,12,53,16.60
2015,10,01,12,54,16.60
2015,10,01,12,55,16.70
2015,10,01,12,56,16.70
2015,10,01,12,57,16.70
2015,10,01,12,58,16.80
2015,10,01,12,59,16.80
2015,10,01,13,00,16.80
2015,10,01,13,01,16.80
2015,10,01,13,02,16.80
2015,10,01,13,03,16.80
2015,10,01,13,04,16.80
2015,10,01,13,05,16.80
2015,10,01,13,06,16.80
2015,10,01,13,07,16.90
2015,10,01,13,08,16.90
2015,10,01,13,09,16.90
2015,10,01,13,10,17.00
2015,10,01,13,11,17.00
2015,10,01,13,12,17.10
2015,10,01,13,13,17.10
2015,10,01,13,14,17.10
2015,10,01,13,15,17.10
2015,10,01,13,16,17.10
2015,10,01,13,17,17.20
2015,10,01,13,18,17.20
2015,10,01,13,19,17.20
2015,10,01,13,20,17.20
2015,10,01,13,21,17.20
2015,10,01,13,22,17.20
2015,10,01,13,23,17.30
2015,10,01,13,24,17.30
2015,10,01,13,25,17.40
2015,10,01,13,26,17.40
2015,10,01,13,27,17.40
2015,10,01,13,28,17.30
2015,10,01,13,29,17.30
2015,10,01,13,30,17.30
2015,10,01,13,31,17.30
2015,10,01,13,32,17.30
2015,10,01,13,33,17.30
2015,10,01,13,34,17.30
2015,10,01,13,35,17.40
2015,10,01,13,36,17.40
2015,10,01,13,37,17.40
2015,10,01,13,38,17.40
2015,10,01,13,39,17.50
2015,10,01,13,40,17.60
2015,10,01,13,41,17.70
2015,10,01,13,42,17.80
2015,10,01,13,43,17.80
2015,10,01,13,44,17.80
2015,10,01,13,45,17.80
2015,10,01,13,46,17.80
2015,10,01,13,47,17.80
2015,10,01,13,48,17.80
2015,10,01,13,49,17.80
2015,10,01,13,50,17.80
2015,10,01,13,51,17.80
2015,10,01,13,52,17.80
2015,10,01,13,53,17.80
2015,10,01,13,54,17.90
2015,10,01,13,55,17.90
2015,10,01,13,56,17.90
2015,10,01,13,57,17.90
2015,10,01,13,58,17.90
2015,10,01,13,59,17.90
2015,10,01,14,00,17.90
2015,10,01,14,01,17.90
2015,10,01,14,02,17.90
2015,10,01,14,03,17.90
2015,10,01,14,04,17.90
2015,10,01,14,05,17.90
2015,10,01,14,06,17.90
2015,10,01,14,07,17.90
2015,10,01,14,08,17.90
2015,10,01,14,09,17.90
2015,10,01,14,10,17.90
2015,10,01,14,11,18.00
2015,10,01,14,12,18.00
2015,10,01,14,13,18.00
2015,10,01,14,14,18.00
2015,10,01,14,15,17.90
2015,10,01,14,16,17.90
2015,10,01,14,17,17.80
2015,10,01,14,18,17.80
2015,10,01,14,19,17.80
2015,10,01,14,20,17.70
2015,10,01,14,21,17.80
2015,10,01,14,22,17.80
2015,10,01,14,23,17.80
2015,10,01,14,24,17.80
2015,10,01,14,25,17.90
2015,10,01,14,26,17.90
2015,10,01,14,27,18.00
2015,10,01,14,28,18.00
2015,10,01,14,29,18.00
2015,10,01,14,30,18.10
2015,10,01,14,31,18.10
2015,10,01,14,32,18.10
2015,10,01,14,33,18.10
2015,10,01,14,34,18.10
2015,10,01,14,35,18.20
2015,10,01,14,36,18.20
2015,10,01,14,37,18.20
2015,10,01,14,38,18.30
2015,10,01,14,39,18.40
2015,10,01,14,40,18.40
2015,10,01,14,41,18.40
2015,10,01,14,42,18.40
2015,10,01,14,43,18.40
2015,10,01,14,44,18.40
2015,10,01,14,45,18.40
2015,10,01,14,46,18.40
2015,10,01,14,47,18.40
2015,10,01,14,48,18.40
2015,10,01,14,49,18.40
2015,10,01,14,50,18.40
2015,10,01,14,51,18.30
2015,10,01,14,52,18.30
2015,10,01,14,53,18.30
2015,10,01,14,54,18.30
2015,10,01,14,55,18.20
2015,10,01,14,56,18.20
2015,10,01,14,57,18.20
2015,10,01,14,58,18.20
2015,10,01,14,59,18.20
2015,10,01,15,00,18.20
2015,10,01,15,01,18.30
2015,10,01,15,02,18.30
2015,10,01,15,03,18.30
2015,10,01,15,04,18.30
2015,10,01,15,05,18.40
2015,10,01,15,06,18.40
2015,10,01,15,07,18.40
2015,10,01,15,08,18.40
2015,10,01,15,09,18.50
2015,10,01,15,10,18.50
2015,10,01,15,11,18.60
2015,10,01,15,12,18.70
2015,10,01,15,13,18.70
2015,10,01,15,14,18.80
2015,10,01,15,15,18.80
2015,10,01,15,16,18.90
2015,10,01,15,17,19.00
2015,10,01,15,18,19.00
2015,10,01,15,19,19.10
2015,10,01,15,20,19.20
2015,10,01,15,21,19.20
2015,10,01,15,22,19.30
2015,10,01,15,23,19.30
2015,10,01,15,24,19.30
2015,10,01,15,25,19.30
2015,10,01,15,26,19.30
2015,10,01,15,27,19.30
2015,10,01,15,28,19.30
2015,10,01,15,29,19.30
2015,10,01,15,30,19.30
2015,10,01,15,31,19.20
2015,10,01,15,32,19.20
2015,10,01,15,33,19.20
2015,10,01,15,34,19.20
2015,10,01,15,35,19.20
2015,10,01,15,36,19.20
2015,10,01,15,37,19.20
2015,10,01,15,38,19.20
2015,10,01,15,39,19.20
2015,10,01,15,40,19.20
2015,10,01,15,41,19.30
2015,10,01,15,42,19.30
2015,10,01,15,43,19.30
2015,10,01,15,44,19.30
2015,10,01,15,45,19.40
2015,10,01,15,46,19.40
2015,10,01,15,47,19.40
2015,10,01,15,48,19.40
2015,10,01,15,49,19.40
2015,10,01,15,50,19.40
2015,10,01,15,51,19.40
2015,10,01,15,52,19.40
2015,10,01,15,53,19.40
2015,10,01,15,54,19.40
2015,10,01,15,55,19.40
2015,10,01,15,56,19.40
2015,10,01,15,57,19.40
2015,10,01,15,58,19.40
2015,10,01,15,59,19.40
2015,10,01,16,00,19.40
2015,10,01,16,01,19.40
2015,10,01,16,02,19.40
2015,10,01,16,03,19.40
2015,10,01,16,04,19.40
2015,10,01,16,05,19.50
2015,10,01,16,06,19.50
2015,10,01,16,07,19.50
2015,10,01,16,08,19.50
2015,10,01,16,09,19.50
2015,10,01,16,10,19.60
2015,10,01,16,11,19.60
2015,10,01,16,12,19.60
2015,10,01,16,13,19.60
2015,10,01,16,14,19.60
2015,10,01,16,15,19.60
2015,10,01,16,16,19.60
2015,10,01,16,17,19.60
2015,10,01,16,18,19.60
2015,10,01,16,19,19.60
2015,10,01,16,20,19.60
2015,10,01,16,21,19.60
2015,10,01,16,22,19.60
2015,10,01,16,23,19.60
2015,10,01,16,24,19.60
2015,10,01,16,25,19.70
2015,10,01,16,26,19.70
2015,10,01,16,27,19.70
2015,10,01,16,28,19.70
2015,10,01,16,29,19.70
2015,10,01,16,30,19.70
2015,10,01,16,31,19.60
2015,10,01,16,32,19.50
2015,10,01,16,33,19.50
2015,10,01,16,34,19.40
2015,10,01,16,35,19.40
2015,10,01,16,36,19.40
2015,10,01,16,37,19.40
2015,10,01,16,38,19.40
2015,10,01,16,39,19.50
2015,10,01,16,40,19.50
2015,10,01,16,41,19.50
2015,10,01,16,42,19.50
2015,10,01,16,43,19.50
2015,10,01,16,44,19.50
2015,10,01,16,45,19.50
2015,10,01,16,46,19.50
2015,10,01,16,47,19.50
2015,10,01,16,48,19.50
2015,10,01,16,49,19.60
2015,10,01,16,50,19.60
2015,10,01,16,51,19.60
2015,10,01,16,52,19.70
2015,10,01,16,53,19.70
2015,10,01,16,54,19.70
2015,10,01,16,55,19.70
2015,10,01,16,56,19.70
2015,10,01,16,57,19.60
2015,10,01,16,58,19.60
2015,10,01,16,59,19.60
2015,10,01,17,00,19.60
2015,10,01,17,01,19.50
2015,10,01,17,02,19.50
2015,10,01,17,03,19.40
2015,10,01,17,04,19.40
2015,10,01,17,05,19.40
2015,10,01,17,06,19.40
2015,10,01,17,07,19.40
2015,10,01,17,08,19.30
2015,10,01,17,09,19.30
2015,10,01,17,10,19.30
2015,10,01,17,11,19.20
2015,10,01,17,12,19.20
2015,10,01,17,13,19.20
2015,10,01,17,14,19.20
2015,10,01,17,15,19.20
2015,10,01,17,16,19.10
2015,10,01,17,17,19.10
2015,10,01,17,18,19.00
2015,10,01,17,19,19.00
2015,10,01,17,20,19.00
2015,10,01,17,21,19.00
2015,10,01,17,22,19.00
2015,10,01,17,23,19.00
2015,10,01,17,24,19.00
2015,10,01,17,25,19.00
2015,10,01,17,26,19.10
2015,10,01,17,27,19.10
2015,10,01,17,28,19.10
2015,10,01,17,29,19.10
2015,10,01,17,30,19.10
2015,10,01,17,31,19.10
2015,10,01,17,32,19.10
2015,10,01,17,33,19.20
2015,10,01,17,34,19.20
2015,10,01,17,35,19.20
2015,10,01,17,36,19.20
2015,10,01,17,37,19.20
2015,10,01,17,38,19.20
2015,10,01,17,39,19.20
2015,10,01,17,40,19.20
2015,10,01,17,41,19.20
2015,10,01,17,42,19.20